GW6887 Weather Reports


time (UTC)temp
F
wind
direction
speed
knots
gust
knots
rain 1hr
in
rain 24hr
in
rain mn
in
humidity
%
barometer
mb
20260503050204 36 141 0.9 1.7 0.00 0.00 0.00 75 1015.7
20260503045205 36 143 0.0 1.7 0.00 0.00 0.00 77 1015.8
20260503044204 36 132 0.0 1.7 0.00 0.00 0.00 75 1015.8
20260503043704 36 129 0.0 1.7 0.00 0.00 0.00 75 1015.9
20260503042704 37 118 0.0 1.7 0.00 0.00 0.00 73 1015.8
20260503042204 37 145 0.0 0.9 0.00 0.00 0.00 74 1015.9
20260503041704 37 136 0.9 1.7 0.00 0.00 0.00 75 1015.9
20260503041204 37 121 0.0 1.7 0.00 0.00 0.00 75 1016.0
20260503040704 37 138 0.0 0.9 0.00 0.00 0.00 74 1016.1
20260503040205 37 141 0.0 1.7 0.00 0.00 0.00 73 1016.1
20260503035704 37 145 0.0 1.7 0.00 0.00 0.00 73 1016.2
20260503035204 37 143 0.0 1.7 0.00 0.00 0.00 73 1016.2
20260503034704 37 148 0.9 0.9 0.00 0.00 0.00 73 1016.3
20260503034205 37 150 0.0 0.9 0.00 0.00 0.00 71 1016.3
20260503033704 38 149 0.9 1.7 0.00 0.00 0.00 73 1016.4
20260503033204 38 123 0.0 1.7 0.00 0.00 0.00 72 1016.3
20260503032704 38 136 0.0 1.7 0.00 0.00 0.00 72 1016.4
20260503032204 39 135 0.9 1.7 0.00 0.00 0.00 71 1016.4
20260503031704 39 203 0.9 2.6 0.00 0.00 0.00 68 1016.4
20260503031204 39 207 0.9 2.6 0.00 0.00 0.00 68 1016.5
20260503030705 39 204 1.7 2.6 0.00 0.00 0.00 68 1016.5
20260503030204 39 143 0.0 1.7 0.00 0.00 0.00 69 1016.5
20260503025204 40 209 0.9 1.7 0.00 0.00 0.00 64 1016.6
20260503024704 40 211 0.9 2.6 0.00 0.00 0.00 63 1016.7
20260503024204 40 198 1.7 2.6 0.00 0.00 0.00 61 1016.7
20260503023205 40 226 1.7 2.6 0.00 0.00 0.00 64 1016.8
20260503022704 40 201 0.9 2.6 0.00 0.00 0.00 64 1016.8
20260503021704 41 174 0.9 2.6 0.00 0.00 0.00 62 1016.8
20260503021204 41 216 1.7 2.6 0.00 0.00 0.00 61 1016.8
20260503020704 42 233 0.9 2.6 0.00 0.00 0.00 59 1016.8
20260503020204 42 206 1.7 4.3 0.00 0.00 0.00 58 1016.8
20260503015704 42 221 1.7 4.3 0.00 0.00 0.00 57 1016.7
20260503015204 42 209 1.7 5.2 0.00 0.00 0.00 57 1016.7
20260503014704 42 231 0.9 4.3 0.00 0.00 0.00 56 1016.7
20260503014203 43 244 1.7 2.6 0.00 0.00 0.00 56 1016.6
20260503013204 43 230 2.6 5.2 0.00 0.00 0.00 55 1016.6
20260503012705 43 205 1.7 4.3 0.00 0.00 0.00 55 1016.6
20260503012205 43 241 1.7 4.3 0.00 0.00 0.00 55 1016.6
20260503011704 44 263 1.7 4.3 0.00 0.00 0.00 55 1016.6
20260503011204 44 239 1.7 2.6 0.00 0.00 0.00 54 1016.6
20260503010704 44 248 1.7 5.2 0.00 0.00 0.00 53 1016.6
20260503010204 45 254 1.7 5.2 0.00 0.00 0.00 51 1016.6
20260503005704 45 212 1.7 7.8 0.00 0.00 0.00 52 1016.5
20260503005204 45 273 1.7 7.8 0.00 0.00 0.00 52 1016.5
20260503004704 46 268 0.9 4.3 0.00 0.00 0.00 51 1016.4
20260503004206 46 278 1.7 5.2 0.00 0.00 0.00 50 1016.4
20260503003706 47 220 1.7 7.0 0.00 0.00 0.00 50 1016.4
20260503003204 47 248 4.3 7.0 0.00 0.00 0.00 48 1016.4
20260503002704 48 243 3.5 7.0 0.00 0.00 0.00 48 1016.4
20260503002204 48 275 3.5 7.8 0.00 0.00 0.00 47 1016.4
20260503001704 49 248 4.3 8.7 0.00 0.00 0.00 45 1016.4
20260503001204 50 291 6.1 10.4 0.00 0.00 0.00 42 1016.3
20260503000204 50 309 4.3 8.7 0.00 0.00 0.00 35 1016.3
20260502235704 50 295 4.3 8.7 0.00 0.00 0.00 35 1016.3
20260502235204 51 303 2.6 8.7 0.00 0.00 0.00 36 1016.4
20260502234706 51 300 7.0 13.0 0.00 0.00 0.00 35 1016.4
20260502233707 51 290 6.1 10.4 0.00 0.00 0.00 34 1016.3
20260502232707 51 300 2.6 7.8 0.00 0.00 0.00 34 1016.4
20260502232207 51 311 4.3 12.2 0.00 0.00 0.00 34 1016.4
20260502231706 51 299 4.3 11.3 0.00 0.00 0.00 35 1016.5
20260502231206 51 309 3.5 8.7 0.00 0.00 0.00 34 1016.5
20260502230207 51 289 5.2 10.4 0.00 0.00 0.00 36 1016.5
20260502225707 50 264 4.3 10.4 0.00 0.00 0.00 38 1016.5
20260502225206 50 288 4.3 11.3 0.00 0.00 0.00 39 1016.5
20260502224706 51 297 6.1 11.3 0.00 0.00 0.00 38 1016.5
20260502223707 51 294 7.8 11.3 0.00 0.00 0.00 39 1016.5
20260502223206 50 302 7.8 14.8 0.00 0.00 0.00 39 1016.5
20260502220707 50 273 4.3 10.4 0.00 0.00 0.00 41 1016.6
20260502220206 50 291 6.1 13.9 0.00 0.00 0.00 40 1016.6
20260502215707 51 286 6.1 13.0 0.00 0.00 0.00 42 1016.5
20260502215206 50 308 2.6 12.2 0.00 0.00 0.00 43 1016.6
20260502214706 50 233 3.5 11.3 0.00 0.00 0.00 42 1016.7
20260502214206 50 256 5.2 11.3 0.00 0.00 0.00 44 1016.7
20260502213706 50 297 7.0 11.3 0.00 0.00 0.00 43 1016.5
20260502213207 50 265 5.2 10.4 0.00 0.00 0.00 43 1016.6
20260502212706 50 289 5.2 8.7 0.00 0.00 0.00 44 1016.6
20260502212206 50 215 5.2 12.2 0.00 0.00 0.00 44 1016.5
20260502211707 50 286 5.2 11.3 0.00 0.00 0.00 44 1016.6
20260502211206 50 247 7.0 11.3 0.00 0.00 0.00 45 1016.6
20260502210707 50 271 6.1 11.3 0.00 0.00 0.00 44 1016.7
20260502210206 50 302 5.2 10.4 0.00 0.00 0.00 45 1016.8
20260502205706 50 248 5.2 12.2 0.00 0.00 0.00 44 1016.9
20260502205206 50 229 6.1 12.2 0.00 0.00 0.00 44 1016.8
20260502204206 49 230 4.3 13.9 0.00 0.00 0.00 46 1017.1
20260502203706 50 289 7.0 10.4 0.00 0.00 0.00 46 1017.0
20260502203206 49 219 6.1 12.2 0.00 0.00 0.00 45 1017.0
20260502202706 49 301 7.8 13.0 0.00 0.00 0.00 47 1017.1
20260502201206 50 296 8.7 13.0 0.00 0.00 0.00 44 1017.1
20260502200706 50 283 5.2 12.2 0.00 0.00 0.00 43 1017.3
20260502195706 49 252 5.2 10.4 0.00 0.00 0.00 46 1017.3
20260502195206 48 278 4.3 10.4 0.00 0.00 0.00 45 1017.4
20260502194707 48 272 4.3 7.8 0.00 0.00 0.00 47 1017.6
20260502194206 48 212 3.5 7.0 0.00 0.00 0.00 46 1017.6
20260502193706 48 225 3.5 6.1 0.00 0.00 0.00 46 1017.7
20260502192706 47 297 7.0 11.3 0.00 0.00 0.00 49 1017.9
20260502192206 47 291 5.2 8.7 0.00 0.00 0.00 49 1017.9
20260502191206 47 278 4.3 8.7 0.00 0.00 0.00 48 1018.0
20260502190706 47 250 3.5 7.8 0.00 0.00 0.00 49 1018.0
20260502190206 47 249 3.5 8.7 0.00 0.00 0.00 47 1018.1
20260502185706 48 295 5.2 8.7 0.00 0.00 0.00 48 1018.1
20260502185206 47 224 4.3 11.3 0.00 0.00 0.00 49 1018.1
20260502184706 47 288 7.8 13.0 0.00 0.00 0.00 49 1018.1
20260502184206 47 232 4.3 8.7 0.00 0.00 0.00 49 1018.2
20260502183706 47 232 5.2 8.7 0.00 0.00 0.00 49 1018.2
20260502182706 47 276 4.3 8.7 0.00 0.00 0.00 48 1018.3
20260502182206 48 326 4.3 10.4 0.00 0.00 0.00 50 1018.3
20260502181206 48 320 5.2 7.8 0.00 0.00 0.00 46 1018.3
20260502180706 48 233 2.6 10.4 0.00 0.00 0.00 48 1018.4
20260502180206 47 314 7.8 11.3 0.00 0.00 0.00 47 1018.5
20260502170206 45 290 4.3 12.2 0.00 0.00 0.00 52 1018.9
20260502164206 44 285 6.1 10.4 0.00 0.00 0.00 52 1019.1
20260502163706 44 338 5.2 8.7 0.00 0.00 0.00 53 1019.1
20260502162205 44 288 2.6 7.0 0.00 0.00 0.00 54 1019.2
20260502161205 43 300 5.2 8.7 0.00 0.00 0.00 56 1019.3
20260502160706 44 323 4.3 7.8 0.00 0.00 0.00 55 1019.3
20260502160206 44 275 4.3 8.7 0.00 0.00 0.00 54 1019.3
20260502152205 44 298 5.2 8.7 0.00 0.00 0.00 55 1019.4
20260502151706 44 274 4.3 7.8 0.00 0.00 0.00 53 1019.4
20260502151205 43 303 6.1 13.0 0.00 0.00 0.00 54 1019.4
20260502150705 42 9 3.5 8.7 0.00 0.00 0.00 56 1019.5
20260502130705 38 353 2.6 5.2 0.00 0.00 0.00 78 1019.8
20260502130206 38 4 2.6 6.1 0.00 0.00 0.00 79 1019.8
20260502123705 37 310 3.5 6.1 0.00 0.00 0.00 80 1019.8
20260502122705 36 321 1.7 5.2 0.00 0.00 0.00 83 1019.9
20260502122205 36 296 2.6 4.3 0.00 0.00 0.00 83 1019.9
20260502121706 35 324 0.9 4.3 0.00 0.00 0.00 85 1019.9
20260502121205 35 325 2.6 4.3 0.00 0.00 0.00 85 1019.9
20260502120205 35 291 0.9 4.3 0.00 0.00 0.00 85 1019.8
20260502115705 35 313 1.7 4.3 0.00 0.00 0.00 85 1019.8
20260502115205 35 18 0.9 2.6 0.00 0.00 0.00 84 1019.8
20260502114705 34 36 0.0 1.7 0.00 0.00 0.00 85 1019.8
20260502113705 33 56 0.9 1.7 0.00 0.00 0.00 87 1019.7
20260502113205 32 112 0.0 0.9 0.00 0.00 0.00 88 1019.7
20260502111705 30 22 0.0 1.7 0.00 0.00 0.00 96 1019.6
20260502111205 29 79 0.0 0.9 0.00 0.00 0.00 96 1019.6
20260502110705 28 58 0.9 1.7 0.00 0.00 0.00 96 1019.6
20260502110205 28 44 0.0 0.9 0.00 0.00 0.00 96 1019.6
20260502105706 28 76 0.0 0.9 0.00 0.00 0.00 96 1019.5
20260502105205 28 98 0.0 1.7 0.00 0.00 0.00 96 1019.5
20260502104705 28 142 0.0 1.7 0.00 0.00 0.00 96 1019.5
20260502104205 28 124 0.0 0.9 0.00 0.00 0.00 96 1019.5
20260502103705 28 137 0.0 0.9 0.00 0.00 0.00 95 1019.5
20260502103205 28 142 0.0 0.9 0.00 0.00 0.00 95 1019.5
20260502102705 28 140 0.0 0.9 0.00 0.00 0.00 95 1019.4
20260502101705 28 158 0.0 0.9 0.00 0.00 0.00 95 1019.3
20260502101205 28 130 0.0 0.9 0.00 0.00 0.00 95 1019.3
20260502100706 28 123 0.0 0.9 0.00 0.00 0.00 95 1019.3
20260502100205 28 178 0.0 0.9 0.00 0.00 0.00 95 1019.3
20260502090706 30 289 0.0 0.9 0.00 0.00 0.00 91 1019.0
20260502090205 30 339 0.0 0.9 0.00 0.00 0.00 91 1018.9
20260502070705 34 3 0.0 1.7 0.00 0.00 0.00 82 1018.9
20260502070205 34 8 0.0 0.9 0.00 0.00 0.00 81 1018.9
20260502065706 34 26 0.9 1.7 0.00 0.00 0.00 81 1018.9
20260502065205 34 348 0.0 0.9 0.00 0.00 0.00 82 1018.9
20260502064705 34 70 0.0 1.7 0.00 0.00 0.00 83 1018.9
20260502064204 34 120 0.9 1.7 0.00 0.00 0.00 81 1019.0
20260502063704 34 242 0.0 0.9 0.00 0.00 0.00 81 1019.1
20260502062704 35 240 0.0 0.9 0.00 0.00 0.00 81 1019.1
20260502062205 35 172 0.0 0.9 0.00 0.00 0.00 80 1019.1
20260502061705 35 142 0.0 0.9 0.00 0.00 0.00 80 1019.1
20260502061205 35 255 0.9 1.7 0.00 0.00 0.00 78 1019.1
20260502060704 36 177 0.0 0.9 0.00 0.00 0.00 80 1019.1
20260502060204 36 158 0.0 1.7 0.00 0.00 0.00 77 1019.0
20260502055705 36 313 0.0 1.7 0.00 0.00 0.00 76 1019.1
20260502055205 36 317 0.9 2.6 0.00 0.00 0.00 76 1019.1
20260502053704 36 314 0.9 1.7 0.00 0.00 0.00 76 1019.0
20260502053204 36 6 0.0 1.7 0.00 0.00 0.00 76 1019.0
20260502052704 36 326 0.9 1.7 0.00 0.00 0.00 75 1019.0
20260502052205 36 296 0.9 1.7 0.00 0.00 0.00 75 1019.0
20260502051705 36 316 0.9 1.7 0.00 0.00 0.00 74 1018.9
20260502051205 36 310 1.7 2.6 0.00 0.00 0.00 74 1018.9
20260502050704 36 2 0.9 2.6 0.00 0.00 0.00 74 1018.9